Preview of NWS' New Version of Forecast
This preview is not operational and should not be used for support decisions.
Latest weather observations around

Tonopah, Tonopah Airport (KTPH)

Using English Units (Switch to International System of Units)
Date/ Time (PDT) Wind (mph) Vis. (mi) Weather Sky Cond. Temp (°F) Rel. Humidity Wind Chill (°F) Heat Index (°F) Pressure Precip. (in)
Air Dwpt 6 hour Altimeter (inHg) Sea level (inHg) 1 hr 3 hr 6 hr
Max Min
Aug 20 06:56   10 Clear CLR 57 21     24%     30.17 29.96      
Aug 20 05:56 N 10 10 Clear CLR 55 20     25%     30.16 29.94      
Aug 20 04:56 N 11 10 Clear CLR 55 19     24%     30.15 29.93      
Aug 20 03:56 N 9 10 Clear CLR 55 18     23%     30.14 29.92      
Aug 20 02:56 N 11 10 Clear CLR 58 18     21%     30.14 29.92      
Aug 20 01:56 N 10 10 Clear CLR 59 18     20%     30.14 29.92      
Aug 20 00:56 N 8 10 Clear CLR 60 17     19%     30.14 29.92      
Aug 19 23:56 N 5 10 Clear CLR 60 16     18%     30.14 29.91      
Aug 19 22:56 NE 3 10 Clear   63 16     16%     30.13 29.91      
Aug 19 21:56 NE 3 10 Clear CLR 68 17     14%     30.12 29.9      
Aug 19 20:56 SSE 7 10 Clear CLR 72 18     13%   69 30.1 29.88      
Aug 19 19:56 SSE 9 10 Clear CLR 78 19     11%   76 30.08 29.86      
Aug 19 18:56 S 14 10 Clear CLR 84 22     10%   81 30.07 29.86      
Aug 19 17:56 SSE 10 10 Clear CLR 87 20     8%   83 30.07 29.85      
Aug 19 16:56 S 10 10 Clear CLR 87 19     8%   83 30.08 29.86      
Aug 19 15:56 S 8 10 Clear CLR 88 18     8%   83 30.08 29.86      
Aug 19 14:56 SSW 8 10 Clear CLR 85 17     8%   81 30.11 29.9      
Aug 19 13:56 SSE 10 10 Clear CLR 85 21     9%   81 30.12 29.91      
Aug 19 12:56 S 5 10 Clear CLR 83 21     10%   80 30.13 29.91      
Aug 19 11:56 S 13 10 Clear CLR 83 22     10%   80 30.15 29.92      
Aug 19 10:56   10 Clear CLR 80 23     12%   78 30.16 29.93      
Aug 19 09:56 SSE 6 10 Clear CLR 76 21     13%   74 30.15 29.93      
Aug 19 08:56 Calm 10 Clear CLR 72 20     14%   70 30.15 29.92      
Aug 19 07:56 N 9 10 Clear CLR 64 19     18%     30.14 29.92      
Aug 19 06:56   10 Clear CLR 56 18     22%     30.13 29.92      
Aug 19 05:56 N 9 10 Clear CLR 54 17     23%     30.12 29.9      
Aug 19 04:56 N 11 10 Clear CLR 56 17     21%     30.11 29.88      
Aug 19 03:56 N 9 10 Clear CLR 55 17     22%     30.11 29.88      
Notice The following observation data may not be complete
Aug 19 02:56 N 11 10 Clear CLR   16      %     30.1 29.87      
Notice The following observation data may not be complete
Aug 19 01:56 N 8 10 Clear CLR   15      %     30.09 29.86      
Aug 19 00:56 N 7 10 Clear CLR 59 16     18%     30.09 29.85      
Aug 18 23:56 Calm 10 Clear CLR 62 18     18%     30.09 29.85      
Aug 18 22:56 SW 6 10 Clear CLR 64 18     17%     30.07 29.84      
Aug 18 21:56 S 5 10 Clear CLR 69 20     15%     30.07 29.83      
Aug 18 20:56 S 8 10 Clear CLR 74 21     14%   72 30.05 29.81      
Aug 18 19:56 S 13 10 Clear CLR 80 21     11%   78 30.02 29.78      
Aug 18 18:56 S 15 10 Clear CLR 85 19     9%   81 30.01 29.78      
Aug 18 17:56 S 14 10 Clear CLR 88 17     7%   83 30.01 29.78      
Aug 18 16:56 S 16 10 Clear CLR 89 16     7%   84 30.01 29.77      
Aug 18 15:56 S 14 10 Clear CLR 89 16     7%   84 30.01 29.78      
Aug 18 14:56 S 14 10 Clear CLR 90 17     7%   85 30.03 29.78      
Aug 18 13:56 SSE 9 10 Clear CLR 89 18     7%   84 30.05 29.8      
Aug 18 12:56 S 13 10 Clear CLR 89 20     8%   84 30.06 29.81      
Aug 18 11:56 S 14 10 Clear CLR 87 17     7%   83 30.07 29.81      
Aug 18 10:56 SSW 6 10 Clear CLR 83 22     10%   80 30.08 29.81      
Aug 18 09:56 S 9 10 Clear CLR 79 21     11%   77 30.08 29.82      
Aug 18 08:56 ESE 3 10 Clear CLR 75 22     14%   73 30.08 29.82      
Aug 18 07:56 NNE 3 10 Clear CLR 69 23     17%     30.07 29.82      
Aug 18 06:56 N 9 10 Clear CLR 59 22     24%     30.06 29.82      
Aug 18 05:56 N 9 10 Clear CLR 57 21     24%     30.04 29.8      
Aug 18 04:56 N 8 10 Clear CLR 58 20     23%     30.03 29.78      
Aug 18 03:56 N 6 10 Clear CLR 59 20     22%     30.03 29.78      
Aug 18 02:56 Calm 10 Clear CLR 59 18     20%     30.02 29.77      
Aug 18 01:56 NNE 3 10 Clear CLR 62 19     19%     30.02 29.77      
Aug 18 00:56 Calm 10 Clear CLR 65 20     18%     30.02 29.76      
Aug 17 23:56 Calm 10 Clear CLR 68 22     17%     30.02 29.75      
Aug 17 22:56 E 6 10 Clear CLR 74 22     14%   72 30.01 29.73      
Aug 17 21:56 SE 3 10 Clear CLR 75 22     14%   73 29.99 29.72      
Aug 17 20:56 SSW 9 10 Clear CLR 79 22     12%   77 29.97 29.7      
Aug 17 19:56 S 13 10 Clear CLR 85 24     11%   81 29.94 29.67      
Aug 17 18:56 S 9 10 Clear CLR 90 28     11%   85 29.93 29.66      
Aug 17 17:56 WSW 7 10 Clear CLR 91 29     11%   86 29.94 29.68      
Aug 17 16:56 NW 9 10 Clear CLR 93 27     9%   88 29.95 29.66      
Aug 17 15:56 S 6 10 Clear CLR 92 29     11%   87 29.96 29.67      
Aug 17 14:56 WSW 16 10 Clear CLR 92 31     11%   87 29.99 29.7      
Aug 17 13:56 6 10 Clear CLR 91 31     12%   87 30.01 29.72      
Aug 17 12:56 5 10 Clear CLR 90 32     13%   86 30.02 29.75      
Aug 17 11:56 5 10 Clear CLR 87 34     15%   84 30.04 29.77      
Aug 17 10:56 NNW 9 10 Clear CLR 87 36     16%   84 30.05 29.77      
Aug 17 09:56 3 10 Clear CLR 83 38     20%   81 30.05 29.76      
Aug 17 08:56 N 5 10 Clear CLR 78 37     23%   77 30.05 29.77      
Aug 17 07:56 N 7 10 Clear CLR 73 31     21%   71 30.05 29.77      
Aug 17 05:56 NNE 13 10 Clear CLR 63 27     25%     30.03 29.76      
May 15 04:56 NNW 3 10 Mostly Clear FEW060 45 36     71% 44   30.03 29.91      
May 13 17:56 NNW 15 10 Partly Cloudy SCT070 SCT120 55 41     59%     29.99 29.91 0    
May 13 05:56 N 9 10 Mostly Cloudy BKN120 42 34     73% 37   29.98 29.91      
May 12 13:56 NNW 13 10 Mostly Cloudy BKN070 BKN090 56 25     30%     29.91 29.82      
May 12 10:56 NNW 17 10 Mostly Clear FEW044 54 28     37%     29.9 29.79      
May 11 22:56 N 14 10 Mostly Cloudy BKN110 49 25     39% 44   29.87 29.73     0
May 11 21:56 NNE 11 10 Cloudy OVC110 50 24     36% 46   29.87 29.73      
May 11 09:56   10 Clear CLR 63 25     23%     29.8 29.61      
May 11 05:56 NW 15 10 Clear CLR 54 25     32%     29.81 29.61      
Jun 12 02:56 N 8 10 Clear CLR 40 29     65% 34     29.69      
Jun 11 21:56 N 23 10 Cloudy and Windy OVC095 47 24     40% 39   29.79 29.66      
Jun 11 16:56   10 Mostly Cloudy BKN110 58 30     34%       29.53      
Jun 11 11:56 SSW 15 10 Clear CLR 68 31     25%       29.52      
Jun 11 08:56 Calm 10 Clear CLR 60 23     24%     29.74 29.54      
Jun 10 23:56 W 8 10 Clear CLR 61 20     20%       29.58      
Jun 09 21:56 WNW 15 10 Clear CLR 66 37     34%     29.84 29.63      
Jun 09 14:56   10 Clear CLR 82 32     16%   80   29.6      
Jun 09 12:56 S 20 10 Clear and Windy CLR 80 32     17%   79   29.63      
Jun 09 07:56 Calm 10 Clear CLR 63 37     38%       29.72      
Jun 08 21:56 NNW 11 10 Clear CLR 69 37     31%     29.95 29.73      
Jun 08 17:56   10 Clear CLR 83 31     15%   80   29.69      
Jun 08 13:56   10 Clear CLR 81 23     12%   79   29.74      
Jun 08 12:56   10 Clear CLR 80 23     12%   78   29.74      
Jun 08 01:56 ESE 10 10 Clear CLR 64 21     19%     29.97 29.72      
Jun 07 19:56 S 16 10 Clear CLR 81 21     11%   79 29.95 29.7      
Notice The following observation data may not be complete
Jun 07 18:56   10 Clear CLR          %              
Jun 07 11:56 S 17 10 Clear CLR 87 26     11%   83   29.8      
Jun 07 08:56 SSE 8 10 Clear CLR 75 25     15%   73   29.83      
Jun 06 07:56 Calm 10 Clear CLR 69 28     21%       29.87      
Notice The following observation data may not be complete
Jun 05 12:56   10 Clear CLR          %